Weather History for San Antonio Stinson, TX

Change the Weather History Date:

Monday, July 1, 2013

  Actual Average Record
Temperature  
Mean Temperature 80 °F -  
Max Temperature 90 °F 91 °F 100 °F (1998)
Min Temperature 72 °F 71 °F 70 °F (2002)
Cooling Degree Days 16    
Growing Degree Days 30 (Base 50)    
Moisture  
Dew Point 57 °F    
Average Humidity 48    
Maximum Humidity 93    
Minimum Humidity 29    
Precipitation  
Precipitation 0.00 in - - ()
Sea Level Pressure  
Sea Level Pressure 29.92 in    
Wind  
Wind Speed 5 mph (NNE)    
Max Wind Speed 17 mph    
Max Gust Speed 24 mph    
Visibility 10 miles    
Events Rain    
Averages and records for this station are not official NWS values.
T = Trace of Precipitation, MM = Missing Value Source: NWS Daily Summary

Daily Weather History Graph

Daily Weather History Graph

Search for Another Location

Airport:

Trip Planner

Search our weather history database for the weather conditions in past years. The results will help you decide how hot, cold, wet, or windy it might be!

Date:

Astronomy

Jul. 01, 2013 Rise Set
Actual Time 6:38 AM CDT 8:37 PM CDT
Civil Twilight 6:10 AM CDT 9:04 PM CDT
Nautical Twilight 5:38 AM CDT 9:37 PM CDT
Astronomical Twilight 5:03 AM CDT 10:12 PM CDT
Moon 1:51 AM CDT (7/1) 3:08 PM CDT (7/1)
Length of Visible Light 14h 53m
Length of Day
13h 59m
Waning Crescent, 35% of the Moon is Illuminated
Jul 1
Waning Crescent
Jul 8
New
Jul 15
First Quarter
Jul 22
Full
Jul 29
Last Quarter

Hourly Weather History & Observations

Time (CDT) Temp. Heat Index Dew Point Humidity Pressure Visibility Wind Dir Wind Speed Gust Speed Precip Events Conditions
12:53 AM 73.9 °F - 70.0 °F 87% 29.85 in 10.0 mi Calm Calm - N/A   Clear
1:53 AM 73.0 °F - 70.0 °F 90% 29.84 in 10.0 mi Calm Calm - N/A   Clear
2:53 AM 72.0 °F - 70.0 °F 93% 29.86 in 10.0 mi Calm Calm - N/A   Clear
3:53 AM 77.0 °F - 61.0 °F 58% 29.87 in 10.0 mi ENE 5.8 mph - N/A   Clear
4:53 AM 75.9 °F - 61.0 °F 60% 29.89 in 10.0 mi NE 4.6 mph - N/A   Partly Cloudy
5:53 AM 75.9 °F - 57.9 °F 54% 29.90 in 10.0 mi NE 6.9 mph - N/A   Scattered Clouds
6:53 AM 75.9 °F - 55.9 °F 50% 29.91 in 10.0 mi NE 9.2 mph - N/A   Scattered Clouds
7:53 AM 75.0 °F - 55.9 °F 51% 29.94 in 10.0 mi NNE 5.8 mph - N/A   Scattered Clouds
8:53 AM 80.1 °F 80.4 °F 57.0 °F 45% 29.94 in 10.0 mi NE 9.2 mph - N/A   Clear
9:53 AM 82.0 °F 81.7 °F 57.0 °F 42% 29.96 in 10.0 mi ENE 10.4 mph - N/A   Clear
10:53 AM 84.0 °F 83.3 °F 57.0 °F 40% 29.96 in 10.0 mi ENE 11.5 mph 17.3 mph N/A   Clear
11:53 AM 86.0 °F 84.5 °F 55.0 °F 35% 29.96 in 10.0 mi ENE 9.2 mph 18.4 mph N/A   Clear
12:53 PM 89.1 °F 87.1 °F 55.0 °F 31% 29.95 in 10.0 mi NNE 8.1 mph - N/A   Clear
1:53 PM 89.1 °F 86.7 °F 53.1 °F 29% 29.94 in 10.0 mi North 17.3 mph 24.2 mph N/A   Clear
2:53 PM 84.9 °F 83.3 °F 54.0 °F 34% 29.94 in 10.0 mi North 11.5 mph 17.3 mph N/A   Clear
3:53 PM 84.0 °F 82.6 °F 54.0 °F 35% 29.94 in 10.0 mi North 6.9 mph 16.1 mph N/A   Clear
4:53 PM 84.0 °F 82.9 °F 55.0 °F 37% 29.92 in 10.0 mi NW 5.8 mph - N/A   Partly Cloudy
5:53 PM 82.9 °F 81.9 °F 54.0 °F 37% 29.91 in 10.0 mi NW 5.8 mph - N/A   Scattered Clouds
6:53 PM 82.9 °F 82.0 °F 55.0 °F 38% 29.91 in 10.0 mi NNW 5.8 mph - 0.00 in Rain Light Rain
7:53 PM 82.9 °F 81.9 °F 54.0 °F 37% 29.92 in 10.0 mi North 8.1 mph - 0.00 in   Clear
8:53 PM 82.0 °F - 52.0 °F 35% 29.93 in 10.0 mi NNE 4.6 mph - N/A   Partly Cloudy
9:53 PM 79.0 °F - 53.1 °F 40% 29.94 in 10.0 mi North 3.5 mph - N/A   Partly Cloudy
10:53 PM 77.0 °F - 54.0 °F 45% 29.96 in 10.0 mi Calm Calm - N/A   Clear
11:53 PM 75.0 °F - 55.0 °F 50% 29.97 in 10.0 mi Calm Calm - N/A   Clear